www.pogodaiklimat.ru

Погода и климат >> Архив погоды >> Пакистан >> Пад Идан


ПОГОДА в Пад Идан

  • Прогноз погоды в Пад Идан
  • Монитор погоды в Пад Идан

АРХИВ ПОГОДЫ в Пад Идан

Время (UTC), дата Ветер
(напр.,м/с)
 
Видим.   Явления Облачность Т
(С)
Тd
(С)
f
(%)
Тe
(С)
Тes
(С)
Комфортность P
(гПа)
Po
(гПа)
Тmin
(С)
Tmax
(С)
R
(мм)
R24
(мм)
S
(см)
09 19.06 Ю 1 4000 м ясно +38.5 +27.8 55 +58 +82 опасность
перегрева
998.0 1000.0
12 19.06 Ю 1 4000 м ясно +39.5 +26.6 48 +55 +62 опасность
перегрева
996.4 1000.0 +40.5
15 19.06 Ю 1 4000 м 5/3 1200 м
[Sc Ac trans]
+36.0 +24.9 53 +49 +49 опасность
перегрева
998.5 1000.0
18 19.06 Ю 1 4000 м 5/3 1200 м
[Sc Ac trans]
+33.0 +23.0 56 +43 +43 опасность
перегрева
999.6 994.4
21 19.06 Ю 1 4000 м ясно +30.0 +22.8 65 +40 +40 очень
душно
998.9 1000.0
00 20.06 Ю 1 4000 м ясно +28.0 +22.9 74 +37 +37 очень
душно
998.2 993.0
03 20.06 Ю 1 4000 м ясно +31.0 +23.9 66 +43 +49 опасность
перегрева
1000.2 995.0 +27.0
06 20.06 Ю 1 4000 м ясно +34.0 +25.7 62 +49 +74 опасность
перегрева
1001.7 1000.0
09 20.06 Ю 1 4000 м ясно +37.5 +26.6 54 +54 +78 опасность
перегрева
1000.2 1000.0
12 20.06 Ю 1 4000 м 4/0
[Ac trans]
+39.0 +26.8 50 +55 +60 опасность
перегрева
998.5 1000.0 +40.1
15 20.06 Ю 1 4000 м 4/0
[Ac trans]
+35.0 +28.3 68 +56 +56 опасность
перегрева
1000.3 1000.0
18 20.06 Ю 1 4000 м 4/0
[Ac trans]
+33.0 +24.8 62 +46 +46 опасность
перегрева
1001.2 1000.0
21 20.06 Ю 1 4000 м 4/0
[Ac trans]
+30.5 +24.1 69 +42 +42 опасность
перегрева
998.6 1000.0
00 21.06 Ю 2 4000 м 4/0
[Ac trans]
+29.0 +24.8 78 +41 +41 опасность
перегрева
997.0 991.7
03 21.06 Ю 1 4000 м ясно +30.0 +24.3 72 +42 +49 опасность
перегрева
1000.0 1000.0 +28.1
06 21.06 Ю 1 4000 м ясно +37.0 +26.0 53 +52 +77 опасность
перегрева
1002.6 1000.0
09 21.06 Ю 1 4000 м ясно +40.0 +27.2 49 +58 +82 опасность
перегрева
999.7 1000.0
12 21.06 ЮВ 1 4000 м ясно +38.5 +25.4 48 +53 +59 опасность
перегрева
998.3 993.2 +41.1
15 21.06 ЮВ 1 4000 м 5/0
[Ac trans]
+35.0 +26.8 63 +53 +53 опасность
перегрева
999.3 1000.0
18 21.06 штиль 0 4000 м ясно +33.0 +24.6 61 +46 +46 опасность
перегрева
1000.3 1000.0
21 21.06 штиль 0 4000 м ясно +30.5 +24.9 72 +44 +44 опасность
перегрева
999.9 1000.0
00 22.06 штиль 0 4000 м 4/0
[Ci fib]
+28.5 +24.2 78 +40 +40 очень
душно
999.9 994.7
03 22.06 Ю 1 4000 м 4/0
[Ci fib]
+30.0 +25.1 75 +43 +50 опасность
перегрева
1001.2 996.0 +28.1
06 22.06 Ю 1 4000 м ясно +38.0 +24.0 45 +49 +74 опасность
перегрева
1001.9 1000.0
09 22.06 Ю 1 4000 м ясно +40.5 +24.6 41 +52 +75 опасность
перегрева
1000.7 995.6
12 22.06 Ю 1 4000 м ясно +40.0 +26.4 47 +56 +63 опасность
перегрева
1000.1 995.0 +41.1
15 22.06 Ю 1 4000 м ясно +35.0 +22.3 48 +44 +44 опасность
перегрева
1003.4 1000.0
18 22.06 Ю 1 4000 м ясно +31.0 +25.4 72 +45 +45 опасность
перегрева
1004.4 1000.0
21 22.06 Ю 1 4000 м ясно +29.0 +24.8 78 +41 +41 опасность
перегрева
1000.9 1000.0
00 23.06 Ю 1 4000 м ясно +28.0 +23.7 77 +38 +38 очень
душно
999.0 993.7
03 23.06 Ю 1 4000 м ясно +30.0 +24.3 72 +42 +49 опасность
перегрева
999.1 1000.0 +27.1
06 23.06 Ю 1 4000 м ясно +37.0 +22.8 44 +46 +71 опасность
перегрева
1000.0 1000.0
09 23.06 Ю 1 4000 м ясно +40.0 +23.1 38 +49 +73 опасность
перегрева
999.1 1000.0
12 23.06 Ю 2 4000 м ясно +41.0 +24.4 39 +52 +57 опасность
перегрева
998.3 993.2 +41.5
15 23.06 Ю 1 4000 м ясно +36.0 +24.9 53 +49 +49 опасность
перегрева
998.3 1000.0
18 23.06 Ю 1 4000 м ясно +33.0 +24.6 61 +46 +46 опасность
перегрева
999.2 1000.0
21 23.06 Ю 2 4000 м ясно +31.0 +24.6 69 +44 +44 опасность
перегрева
996.2 991.0
00 24.06 Ю 1 4000 м ясно +29.0 +24.8 78 +41 +41 опасность
перегрева
995.4 990.2
03 24.06 ЮВ 1 4000 м ясно +31.0 +25.4 72 +45 +52 опасность
перегрева
1000.8 995.6 +28.1
06 24.06 Ю 1 4000 м ясно +37.0 +25.2 51 +51 +75 опасность
перегрева
1002.7 1000.0
09 24.06 Ю 1 4000 м 3/0
[Ci fib]
+40.0 +26.4 47 +56 +79 опасность
перегрева
1001.4 1000.0
12 24.06 Ю 1 4000 м 3/0
[Ci fib]
+39.0 +25.2 46 +52 +58 опасность
перегрева
998.1 993.0 +41.0
15 24.06 Ю 1 4000 м ясно +36.0 +24.9 53 +49 +49 опасность
перегрева
999.1 1000.0
18 24.06 Ю 1 4000 м ясно +34.5 +23.3 52 +45 +45 опасность
перегрева
1000.2 1000.0
21 24.06 Ю 1 4000 м ясно +32.0 +23.4 60 +43 +43 опасность
перегрева
1000.0 1000.0
00 25.06 Ю 1 4000 м ясно +30.0 +24.3 72 +42 +42 опасность
перегрева
999.9 1000.0
03 25.06 Ю 1 4000 м ясно +32.0 +25.0 67 +46 +53 опасность
перегрева
1000.1 1000.0 +29.1
06 25.06 Ю 1 4000 м ясно +39.0 +26.8 50 +55 +80 опасность
перегрева
1003.7 1000.0
09 25.06 Ю 1 4000 м 4/0
[Ci fib]
+42.5 +27.8 44 +60 +83 опасность
перегрева
1001.3 1000.0
12 25.06 Ю 1 4000 м 4/0
[Ac trans]
+41.0 +24.4 39 +52 +57 опасность
перегрева
999.1 994.0 +43.0
15 25.06 Ю 1 4000 м 4/0
[Ac trans]
+35.5 +28.1 66 +57 +57 опасность
перегрева
1001.1 1000.0
18 25.06 Ю 1 4000 м ясно +33.0 +26.1 67 +49 +49 опасность
перегрева
1002.1 1000.0
21 25.06 Ю 1 4000 м ясно +31.0 +25.4 72 +45 +45 опасность
перегрева
1001.5 1000.0
00 26.06 штиль 0 4000 м ясно +29.5 +25.3 78 +43 +43 опасность
перегрева
1000.3 995.1
03 26.06 ЮВ 1 4000 м 4/0
[Ci fib]
+31.5 +25.2 69 +45 +52 опасность
перегрева
1001.6 996.4 +28.5
06 26.06 Ю 1 4000 м ясно +37.0 +26.0 53 +52 +77 опасность
перегрева
1002.3 1000.0

 

Местоположение метеостанции Пад Идан (Пакистан): широта 26.85 долгота 68.13 высота над уровнем моря 47 м.

В архиве по умолчанию представлена погода в Пад Идан за последнюю неделю. Архивные данные за месяц целиком и за предыдущие месяцы, начиная с января 2011 года, Вы можете получить, выбрав интересующий диапазон дат из раскрывающегося списка и нажав кнопку "Ввод!".


*Определитесь, кто Вы:
робот инопланетянин человек

Внимание! Время в таблицах - всемирное. Для получения местного времени необходимо прибавить поправку, которая равна 5 ч.

Смотрите также архив погоды в соседних городах и на ближайших метеорологических станциях:

Погода в Мохенджо-Даро (Пакистан) (52 км)
Погода в Навабшахе (Пакистан) (71 км)
Погода в Ларкане (Пакистан) (78 км)
Погода в Суккуре (Пакистан) (115 км)
Погода в Рохри (Пакистан) (119 км)
Погода в Даду (Пакистан) (138 км)
Погода в Джейкобабаде (Пакистан) (165 км)
Погода в Хайдарабате (Пакистан) (166 км)
Погода в Мир Пур Кхас (Пакистан) (170 км)
Погода в Хуздаре (Пакистан) (184 км)

Пояснения к столбцам:

Ветер - указаны скорость ветра в м/с - средняя за 10 мин, порывы в срок и между сроками (в фигурных скобках) и направление, откуда дует ветер: С - северный, СВ - северо-восточный, В - восточный, ЮВ - юго-восточный, Ю - южный, ЮЗ - юго-западный, З - западный, СЗ - северо-западный.
Видимость - горизонтальная дальность видимости в метрах или километрах. При видимости от 1 до 10 км при отсутствии осадков обычно наблюдается дымка, при ухудшении видимости до 1 км и менее - туман. В сухую погоду видимость может ухудшаться дымом, пылью или мглою.
Явления - указаны атмосферные явления, наблюдавшиеся в срок или в последний час перед сроком; фигурными скобками обозначены явления, наблюдавшиеся между сроками (за 1-3 часа до срока); квадратными скобками обозначены град или гололедные отложения с указанием их диаметра в мм.
Облачность - указаны через наклонную черту общая и нижняя облачность в баллах и высота нижней границы облаков в метрах; квадратными скобками обозначены формы облаков: Ci - перистые, Cs - перисто-слоистые, Cc - перисто-кучевые, Ac - высококучевые, As - высокослоистые, Sc - слоисто-кучевые, Ns - слоисто-дождевые, Cu - кучевые, Cb - кучево-дождевые. Подробнее классификацию облаков см. в Атласе облаков (PDF).
T - Температура воздуха - температура, измеренная на высоте 2 м над землей.
Td - Температура точки росы - температура, при понижении до которой содержащийся в воздухе водяной пар достигнет насыщения.
f - Относительная влажность воздуха - влажноcть воздуха, измеренная на высоте 2 м над землей.
Te - Эффективная температура - температура, которую ощущает одетый по сезону человек в тени. Характеристика душности погоды. При расчете учитывается влияние влажности воздуха и скорости ветра на теплоощущения человека.
Tes - Эффективная температура на солнце - температура, которую ощущает человек, с поправкой на солнечный нагрев. Характеристика знойности погоды. Зависит от высоты солнца над горизонтом, облачности и скорости ветра. Ночью, в пасмурную погоду, а также при ветре 12 м/с и более поправка равна нулю.
P - Атмосферное давление - приведенное к уровню моря атмосферное давление.
Po - Атмосферное давление - измеренное на уровне метеостанции атмосферное давление.
Tmin - Минимальная температура - минимум температуры воздуха на высоте 2 м над землей.
Tmax - Максимальная температура - максимум температуры воздуха на высоте 2 м над землей.
R - Количество осадков - Количество выпавших осадков за период времени, мм. При наведении курсора мыши на число - период времени, за который выпало указанное количество осадков.
R24 - Количество осадков - Количество выпавших осадков за 24 часа, мм.
S - Снежный покров - Высота снежного покрова, см. При наведении курсора мыши на число - состояние снежного покрова и степень покрытия местности в баллах.